Year,Month,Day,Hour,Minute,Value (Times are PST for barometer in hPa)
2015,08,29,00,00,1003.73
2015,08,29,00,01,1003.67
2015,08,29,00,02,1003.69
2015,08,29,00,03,1003.66
2015,08,29,00,04,1003.69
2015,08,29,00,05,1003.69
2015,08,29,00,06,1003.62
2015,08,29,00,07,1003.59
2015,08,29,00,08,1003.59
2015,08,29,00,09,1003.56
2015,08,29,00,10,1003.56
2015,08,29,00,11,1003.49
2015,08,29,00,12,1003.49
2015,08,29,00,13,1003.49
2015,08,29,00,14,1003.52
2015,08,29,00,15,1003.49
2015,08,29,00,16,1003.49
2015,08,29,00,17,1003.46
2015,08,29,00,18,1003.46
2015,08,29,00,19,1003.39
2015,08,29,00,20,1003.39
2015,08,29,00,21,1003.39
2015,08,29,00,22,1003.35
2015,08,29,00,23,1003.32
2015,08,29,00,24,1003.29
2015,08,29,00,25,1003.22
2015,08,29,00,26,1003.29
2015,08,29,00,27,1003.25
2015,08,29,00,28,1003.18
2015,08,29,00,29,1003.15
2015,08,29,00,30,1003.08
2015,08,29,00,31,1003.11
2015,08,29,00,32,1003.01
2015,08,29,00,33,1002.98
2015,08,29,00,34,1002.95
2015,08,29,00,35,1002.91
2015,08,29,00,36,1002.95
2015,08,29,00,37,1002.91
2015,08,29,00,38,1002.95
2015,08,29,00,39,1002.88
2015,08,29,00,40,1002.95
2015,08,29,00,41,1002.88
2015,08,29,00,42,1002.88
2015,08,29,00,43,1002.85
2015,08,29,00,44,1002.88
2015,08,29,00,45,1002.88
2015,08,29,00,46,1002.78
2015,08,29,00,47,1002.71
2015,08,29,00,48,1002.64
2015,08,29,00,49,1002.64
2015,08,29,00,50,1002.61
2015,08,29,00,51,1002.57
2015,08,29,00,52,1002.54
2015,08,29,00,53,1002.54
2015,08,29,00,54,1002.51
2015,08,29,00,55,1002.54
2015,08,29,00,56,1002.54
2015,08,29,00,57,1002.51
2015,08,29,00,58,1002.47
2015,08,29,00,59,1002.47
2015,08,29,01,00,1002.41
2015,08,29,01,01,1002.41
2015,08,29,01,02,1002.34
2015,08,29,01,03,1002.34
2015,08,29,01,04,1002.34
2015,08,29,01,05,1002.34
2015,08,29,01,06,1002.30
2015,08,29,01,07,1002.20
2015,08,29,01,08,1002.24
2015,08,29,01,09,1002.17
2015,08,29,01,10,1002.10
2015,08,29,01,11,1002.07
2015,08,29,01,12,1002.03
2015,08,29,01,13,1002.03
2015,08,29,01,14,1002.07
2015,08,29,01,15,1002.03
2015,08,29,01,16,1002.00
2015,08,29,01,17,1001.97
2015,08,29,01,18,1001.93
2015,08,29,01,19,1001.90
2015,08,29,01,20,1001.83
2015,08,29,01,21,1001.80
2015,08,29,01,22,1001.76
2015,08,29,01,23,1001.76
2015,08,29,01,24,1001.80
2015,08,29,01,25,1001.73
2015,08,29,01,26,1001.66
2015,08,29,01,27,1001.66
2015,08,29,01,28,1001.66
2015,08,29,01,29,1001.59
2015,08,29,01,30,1001.59
2015,08,29,01,31,1001.56
2015,08,29,01,32,1001.52
2015,08,29,01,33,1001.46
2015,08,29,01,34,1001.41
2015,08,29,01,35,1001.29
2015,08,29,01,36,1001.29
2015,08,29,01,37,1001.22
2015,08,29,01,38,1001.22
2015,08,29,01,39,1001.25
2015,08,29,01,40,1001.22
2015,08,29,01,41,1001.22
2015,08,29,01,42,1001.15
2015,08,29,01,43,1001.15
2015,08,29,01,44,1001.15
2015,08,29,01,45,1001.12
2015,08,29,01,46,1001.08
2015,08,29,01,47,1001.02
2015,08,29,01,48,1000.95
2015,08,29,01,49,1000.98
2015,08,29,01,50,1000.98
2015,08,29,01,51,1000.92
2015,08,29,01,52,1000.88
2015,08,29,01,53,1000.92
2015,08,29,01,54,1000.92
2015,08,29,01,55,1000.88
2015,08,29,01,56,1000.88
2015,08,29,01,57,1000.88
2015,08,29,01,58,1000.88
2015,08,29,01,59,1000.80
2015,08,29,02,00,1000.68
2015,08,29,02,01,1000.71
2015,08,29,02,02,1000.64
2015,08,29,02,03,1000.61
2015,08,29,02,04,1000.58
2015,08,29,02,05,1000.61
2015,08,29,02,06,1000.54
2015,08,29,02,07,1000.61
2015,08,29,02,08,1000.54
2015,08,29,02,09,1000.48
2015,08,29,02,10,1000.51
2015,08,29,02,11,1000.54
2015,08,29,02,12,1000.44
2015,08,29,02,13,1000.43
2015,08,29,02,14,1000.31
2015,08,29,02,15,1000.34
2015,08,29,02,16,1000.31
2015,08,29,02,17,1000.31
2015,08,29,02,18,1000.24
2015,08,29,02,19,1000.24
2015,08,29,02,20,1000.17
2015,08,29,02,21,1000.10
2015,08,29,02,22,1000.09
2015,08,29,02,23,999.99
2015,08,29,02,24,999.90
2015,08,29,02,25,999.83
2015,08,29,02,26,999.83
2015,08,29,02,27,999.76
2015,08,29,02,28,999.80
2015,08,29,02,29,999.73
2015,08,29,02,30,999.80
2015,08,29,02,31,999.80
2015,08,29,02,32,999.83
2015,08,29,02,33,999.80
2015,08,29,02,34,999.83
2015,08,29,02,35,999.87
2015,08,29,02,36,999.83
2015,08,29,02,37,999.80
2015,08,29,02,38,999.76
2015,08,29,02,39,999.80
2015,08,29,02,40,999.80
2015,08,29,02,41,999.80
2015,08,29,02,42,999.73
2015,08,29,02,43,999.76
2015,08,29,02,44,999.76
2015,08,29,02,45,999.76
2015,08,29,02,46,999.76
2015,08,29,02,47,999.73
2015,08,29,02,48,999.70
2015,08,29,02,49,999.76
2015,08,29,02,50,999.73
2015,08,29,02,51,999.63
2015,08,29,02,52,999.59
2015,08,29,02,53,999.59
2015,08,29,02,54,999.56
2015,08,29,02,55,999.56
2015,08,29,02,56,999.63
2015,08,29,02,57,999.53
2015,08,29,02,58,999.63
2015,08,29,02,59,999.59
2015,08,29,03,00,999.66
2015,08,29,03,01,999.63
2015,08,29,03,02,999.70
2015,08,29,03,06,999.46
2015,08,29,03,07,999.46
2015,08,29,03,08,999.42
2015,08,29,03,09,999.32
2015,08,29,03,10,999.32
2015,08,29,03,11,999.29
2015,08,29,03,12,999.26
2015,08,29,03,13,999.26
2015,08,29,03,14,999.22
2015,08,29,03,15,999.22
2015,08,29,03,16,999.19
2015,08,29,03,17,999.19
2015,08,29,03,18,999.22
2015,08,29,03,19,999.19
2015,08,29,03,20,999.22
2015,08,29,03,21,999.19
2015,08,29,03,22,999.15
2015,08,29,03,23,999.11
2015,08,29,03,24,998.98
2015,08,29,03,25,998.92
2015,08,29,03,26,998.85
2015,08,29,03,27,998.82
2015,08,29,03,28,998.50
2015,08,29,03,29,998.43
2015,08,29,03,30,998.38
2015,08,29,03,31,998.27
2015,08,29,03,32,998.23
2015,08,29,03,33,998.17
2015,08,29,03,34,998.16
2015,08,29,03,35,998.10
2015,08,29,03,36,998.10
2015,08,29,03,37,998.09
2015,08,29,03,38,998.04
2015,08,29,03,39,998.04
2015,08,29,03,40,998.03
2015,08,29,03,41,997.90
2015,08,29,03,42,997.97
2015,08,29,03,43,997.98
2015,08,29,03,44,998.05
2015,08,29,03,45,998.10
2015,08,29,03,46,998.14
2015,08,29,03,47,998.14
2015,08,29,03,48,998.14
2015,08,29,03,49,998.14
2015,08,29,03,50,998.14
2015,08,29,03,51,998.14
2015,08,29,03,52,998.14
2015,08,29,03,53,998.09
2015,08,29,03,54,998.04
2015,08,29,03,55,998.07
2015,08,29,03,56,998.04
2015,08,29,03,57,998.07
2015,08,29,03,58,998.00
2015,08,29,03,59,998.00
2015,08,29,04,00,997.97
2015,08,29,04,01,997.97
2015,08,29,04,02,997.97
2015,08,29,04,03,997.97
2015,08,29,04,04,997.90
2015,08,29,04,05,997.90
2015,08,29,04,06,997.89
2015,08,29,04,07,997.83
2015,08,29,04,08,997.83
2015,08,29,04,09,997.87
2015,08,29,04,10,997.87
2015,08,29,04,11,997.84
2015,08,29,04,12,997.94
2015,08,29,04,13,997.91
2015,08,29,04,14,997.97
2015,08,29,04,15,998.00
2015,08,29,04,16,997.94
2015,08,29,04,17,997.89
2015,08,29,04,18,997.77
2015,08,29,04,19,997.73
2015,08,29,04,20,997.73
2015,08,29,04,21,997.70
2015,08,29,04,22,997.70
2015,08,29,04,23,997.62
2015,08,29,04,24,997.53
2015,08,29,04,25,997.53
2015,08,29,04,26,997.55
2015,08,29,04,27,997.50
2015,08,29,04,28,997.56
2015,08,29,04,29,997.60
2015,08,29,04,30,997.60
2015,08,29,04,31,997.63
2015,08,29,04,32,997.66
2015,08,29,04,33,997.66
2015,08,29,04,34,997.63
2015,08,29,04,35,997.63
2015,08,29,04,36,997.59
2015,08,29,04,37,997.50
2015,08,29,04,38,997.49
2015,08,29,04,39,997.39
2015,08,29,04,40,997.36
2015,08,29,04,41,997.29
2015,08,29,04,42,997.32
2015,08,29,04,43,997.26
2015,08,29,04,44,997.32
2015,08,29,04,45,997.25
2015,08,29,04,46,997.11
2015,08,29,04,47,997.01
2015,08,29,04,48,996.95
2015,08,29,04,49,996.89
2015,08,29,04,50,996.81
2015,08,29,04,51,996.75
2015,08,29,04,52,996.72
2015,08,29,04,53,996.68
2015,08,29,04,54,996.68
2015,08,29,04,55,996.61
2015,08,29,04,56,996.61
2015,08,29,04,57,996.61
2015,08,29,04,58,996.58
2015,08,29,04,59,996.55
2015,08,29,05,00,996.51
2015,08,29,05,01,996.48
2015,08,29,05,02,996.48
2015,08,29,05,03,996.45
2015,08,29,05,04,996.48
2015,08,29,05,05,996.45
2015,08,29,05,06,996.41
2015,08,29,05,07,996.37
2015,08,29,05,08,996.31
2015,08,29,05,09,996.30
2015,08,29,05,10,996.23
2015,08,29,05,11,996.14
2015,08,29,05,12,996.04
2015,08,29,05,13,996.01
2015,08,29,05,14,995.97
2015,08,29,05,15,996.01
2015,08,29,05,16,996.01
2015,08,29,05,17,995.97
2015,08,29,05,18,996.01
2015,08,29,05,19,996.01
2015,08,29,05,20,996.01
2015,08,29,05,21,996.01
2015,08,29,05,22,995.97
2015,08,29,05,23,995.97
2015,08,29,05,24,995.94
2015,08,29,05,25,995.90
2015,08,29,05,26,995.94
2015,08,29,05,27,995.94
2015,08,29,05,28,995.96
2015,08,29,05,29,995.90
2015,08,29,05,30,995.94
2015,08,29,05,31,995.94
2015,08,29,05,32,995.90
2015,08,29,05,33,995.87
2015,08,29,05,34,995.87
2015,08,29,05,35,995.87
2015,08,29,05,36,995.87
2015,08,29,05,37,995.87
2015,08,29,05,38,995.87
2015,08,29,05,39,995.90
2015,08,29,05,40,995.84
2015,08,29,05,41,995.84
2015,08,29,05,42,995.87
2015,08,29,05,43,995.85
2015,08,29,05,44,995.94
2015,08,29,05,45,995.90
2015,08,29,05,46,995.87
2015,08,29,05,47,995.90
2015,08,29,05,48,995.90
2015,08,29,05,49,995.87
2015,08,29,05,50,995.84
2015,08,29,05,51,995.84
2015,08,29,05,52,995.84
2015,08,29,05,53,995.84
2015,08,29,05,54,995.84
2015,08,29,05,55,995.84
2015,08,29,05,56,995.81
2015,08,29,05,57,995.97
2015,08,29,05,58,996.02
2015,08,29,05,59,996.11
2015,08,29,06,00,996.11
2015,08,29,06,01,996.07
2015,08,29,06,02,996.14
2015,08,29,06,03,996.17
2015,08,29,06,04,996.21
2015,08,29,06,05,996.24
2015,08,29,06,06,996.31
2015,08,29,06,07,996.28
2015,08,29,06,08,996.29
2015,08,29,06,09,996.38
2015,08,29,06,10,996.34
2015,08,29,06,11,996.41
2015,08,29,06,12,996.41
2015,08,29,06,13,996.48
2015,08,29,06,14,996.48
2015,08,29,06,15,996.51
2015,08,29,06,16,996.48
2015,08,29,06,17,996.51
2015,08,29,06,18,996.58
2015,08,29,06,19,996.55
2015,08,29,06,20,996.58
2015,08,29,06,21,996.61
2015,08,29,06,22,996.58
2015,08,29,06,23,996.61
2015,08,29,06,24,996.64
2015,08,29,06,25,996.51
2015,08,29,06,26,996.48
2015,08,29,06,27,996.45
2015,08,29,06,28,996.38
2015,08,29,06,29,996.27
2015,08,29,06,30,996.12
2015,08,29,06,31,995.84
2015,08,29,06,32,995.77
2015,08,29,06,33,995.77
2015,08,29,06,34,995.72
2015,08,29,06,35,995.49
2015,08,29,06,36,995.38
2015,08,29,06,37,995.01
2015,08,29,06,38,994.83
2015,08,29,06,39,994.92
2015,08,29,06,40,994.98
2015,08,29,06,41,994.89
2015,08,29,06,42,994.92
2015,08,29,06,43,994.92
2015,08,29,06,44,994.91
2015,08,29,06,45,994.79
2015,08,29,06,46,994.75
2015,08,29,06,47,994.82
2015,08,29,06,48,994.75
2015,08,29,06,49,994.75
2015,08,29,06,50,994.72
2015,08,29,06,51,994.52
2015,08,29,06,52,994.48
2015,08,29,06,53,994.48
2015,08,29,06,54,994.41
2015,08,29,06,55,994.41
2015,08,29,06,56,994.34
2015,08,29,06,57,994.20
2015,08,29,06,58,994.06
2015,08,29,06,59,993.91
2015,08,29,07,00,993.97
2015,08,29,07,01,993.73
2015,08,29,07,02,993.52
2015,08,29,07,03,993.35
2015,08,29,07,04,993.22
2015,08,29,07,05,993.06
2015,08,29,07,06,993.03
2015,08,29,07,07,993.04
2015,08,29,07,08,993.30
2015,08,29,07,09,993.24
2015,08,29,07,10,993.37
2015,08,29,07,11,993.50
2015,08,29,07,12,993.50
2015,08,29,07,13,993.63
2015,08,29,07,14,993.70
2015,08,29,07,15,993.59
2015,08,29,07,16,993.50
2015,08,29,07,17,993.57
2015,08,29,07,18,993.50
2015,08,29,07,19,993.47
2015,08,29,07,20,993.36
2015,08,29,07,21,993.36
2015,08,29,07,22,993.34
2015,08,29,07,23,993.43
2015,08,29,07,24,993.50
2015,08,29,07,25,993.47
2015,08,29,07,26,993.41
2015,08,29,07,27,993.50
2015,08,29,07,28,993.42
2015,08,29,07,29,993.29
2015,08,29,07,30,993.16
2015,08,29,07,31,993.12
2015,08,29,07,32,993.03
2015,08,29,07,33,993.03
2015,08,29,07,34,993.06
2015,08,29,07,35,993.16
2015,08,29,07,36,993.23
2015,08,29,07,37,993.19
2015,08,29,07,38,993.26
2015,08,29,07,39,993.33
2015,08,29,07,40,993.33
2015,08,29,07,41,993.30
2015,08,29,07,42,993.33
2015,08,29,07,43,993.23
2015,08,29,07,44,993.31
2015,08,29,07,45,993.47
2015,08,29,07,46,993.60
2015,08,29,07,47,993.60
2015,08,29,07,48,993.53
2015,08,29,07,49,993.53
2015,08,29,07,50,993.60
2015,08,29,07,51,993.67
2015,08,29,07,52,993.77
2015,08,29,07,53,993.70
2015,08,29,07,54,993.67
2015,08,29,07,55,993.71
2015,08,29,07,56,993.80
2015,08,29,07,57,993.84
2015,08,29,07,58,993.88
2015,08,29,07,59,993.97
2015,08,29,08,00,994.01
2015,08,29,08,01,993.94
2015,08,29,08,02,993.91
2015,08,29,08,03,993.94
2015,08,29,08,04,993.97
2015,08,29,08,05,993.97
2015,08,29,08,06,994.04
2015,08,29,08,07,994.04
2015,08,29,08,08,994.01
2015,08,29,08,09,994.07
2015,08,29,08,10,994.01
2015,08,29,08,11,994.04
2015,08,29,08,12,994.01
2015,08,29,08,13,993.94
2015,08,29,08,14,993.94
2015,08,29,08,15,994.01
2015,08,29,08,16,994.04
2015,08,29,08,17,994.01
2015,08,29,08,18,994.04
2015,08,29,08,19,994.04
2015,08,29,08,20,994.07
2015,08,29,08,21,994.11
2015,08,29,08,22,994.04
2015,08,29,08,23,994.14
2015,08,29,08,24,994.18
2015,08,29,08,25,994.28
2015,08,29,08,26,994.21
2015,08,29,08,27,994.28
2015,08,29,08,28,994.31
2015,08,29,08,29,994.35
2015,08,29,08,30,994.35
2015,08,29,08,31,994.45
2015,08,29,08,32,994.48
2015,08,29,08,33,994.45
2015,08,29,08,34,994.48
2015,08,29,08,35,994.55
2015,08,29,08,36,994.65
2015,08,29,08,37,994.58
2015,08,29,08,38,994.58
2015,08,29,08,39,994.52
2015,08,29,08,40,994.52
2015,08,29,08,41,994.41
2015,08,29,08,42,994.41
2015,08,29,08,43,994.38
2015,08,29,08,44,994.38
2015,08,29,08,45,994.38
2015,08,29,08,46,994.38
2015,08,29,08,47,994.41
2015,08,29,08,48,994.38
2015,08,29,08,49,994.41
2015,08,29,08,50,994.41
2015,08,29,08,51,994.45
2015,08,29,08,52,994.48
2015,08,29,08,53,994.48
2015,08,29,08,54,994.52
2015,08,29,08,55,994.55
2015,08,29,08,56,994.58
2015,08,29,08,57,994.55
2015,08,29,08,58,994.58
2015,08,29,08,59,994.52
2015,08,29,09,00,994.58
2015,08,29,09,01,994.68
2015,08,29,09,02,994.62
2015,08,29,09,03,994.55
2015,08,29,09,04,994.55
2015,08,29,09,05,994.61
2015,08,29,09,06,994.48
2015,08,29,09,07,994.53
2015,08,29,09,08,994.62
2015,08,29,09,09,994.55
2015,08,29,09,10,994.48
2015,08,29,09,11,994.55
2015,08,29,09,12,994.55
2015,08,29,09,13,994.52
2015,08,29,09,14,994.48
2015,08,29,09,15,994.48
2015,08,29,09,16,994.41
2015,08,29,09,17,994.41
2015,08,29,09,18,994.31
2015,08,29,09,19,994.24
2015,08,29,09,20,994.21
2015,08,29,09,21,994.28
2015,08,29,09,22,994.28
2015,08,29,09,23,994.31
2015,08,29,09,24,994.31
2015,08,29,09,25,994.24
2015,08,29,09,26,994.18
2015,08,29,09,27,994.24
2015,08,29,09,28,994.18
2015,08,29,09,29,994.11
2015,08,29,09,30,994.14
2015,08,29,09,31,994.18
2015,08,29,09,32,994.17
2015,08,29,09,33,994.07
2015,08,29,09,34,994.14
2015,08,29,09,35,994.14
2015,08,29,09,36,994.14
2015,08,29,09,37,994.07
2015,08,29,09,38,994.07
2015,08,29,09,39,994.14
2015,08,29,09,40,994.11
2015,08,29,09,41,994.18
2015,08,29,09,42,994.14
2015,08,29,09,43,994.15
2015,08,29,09,44,994.24
2015,08,29,09,45,994.30
2015,08,29,09,46,994.18
2015,08,29,09,47,994.24
2015,08,29,09,48,994.21
2015,08,29,09,49,994.21
2015,08,29,09,50,994.11
2015,08,29,09,51,994.18
2015,08,29,09,52,994.11
2015,08,29,09,53,994.04
2015,08,29,09,54,994.07
2015,08,29,09,55,994.11
2015,08,29,09,56,994.05
2015,08,29,09,57,994.18
2015,08,29,09,58,994.28
2015,08,29,09,59,994.18
2015,08,29,10,00,994.18
2015,08,29,10,01,994.07
2015,08,29,10,02,994.04
2015,08,29,10,03,994.01
2015,08,29,10,04,993.97
2015,08,29,10,05,993.94
2015,08,29,10,06,994.02
2015,08,29,10,07,994.11
2015,08,29,10,08,994.07
2015,08,29,10,09,994.11
2015,08,29,10,10,994.14
2015,08,29,10,11,994.14
2015,08,29,10,12,994.14
2015,08,29,10,13,994.11
2015,08,29,10,14,994.11
2015,08,29,10,15,994.07
2015,08,29,10,16,993.97
2015,08,29,10,17,994.01
2015,08,29,10,18,994.01
2015,08,29,10,19,993.94
2015,08,29,10,20,993.94
2015,08,29,10,21,993.77
2015,08,29,10,22,993.87
2015,08,29,10,23,993.74
2015,08,29,10,24,993.67
2015,08,29,10,25,993.78
2015,08,29,10,26,993.87
2015,08,29,10,27,993.97
2015,08,29,10,28,993.94
2015,08,29,10,29,993.97
2015,08,29,10,30,994.01
2015,08,29,10,31,993.90
2015,08,29,10,32,993.77
2015,08,29,10,33,993.60
2015,08,29,10,34,993.57
2015,08,29,10,35,993.50
2015,08,29,10,36,993.50
2015,08,29,10,37,993.50
2015,08,29,10,38,993.47
2015,08,29,10,39,993.47
2015,08,29,10,40,993.53
2015,08,29,10,41,993.50
2015,08,29,10,42,993.53
2015,08,29,10,43,993.53
2015,08,29,10,44,993.46
2015,08,29,10,45,993.19
2015,08,29,10,46,993.09
2015,08,29,10,47,993.16
2015,08,29,10,48,993.19
2015,08,29,10,49,993.33
2015,08,29,10,50,993.26
2015,08,29,10,51,993.16
2015,08,29,10,52,993.12
2015,08,29,10,53,992.92
2015,08,29,10,54,992.85
2015,08,29,10,55,992.69
2015,08,29,10,56,992.75
2015,08,29,10,57,992.82
2015,08,29,10,58,992.86
2015,08,29,10,59,992.86
2015,08,29,11,00,992.82
2015,08,29,11,01,992.82
2015,08,29,11,02,992.82
2015,08,29,11,03,992.74
2015,08,29,11,04,992.62
2015,08,29,11,05,992.58
2015,08,29,11,06,992.48
2015,08,29,11,07,992.45
2015,08,29,11,08,992.35
2015,08,29,11,09,992.31
2015,08,29,11,10,992.21
2015,08,29,11,11,992.13
2015,08,29,11,12,991.93
2015,08,29,11,13,991.84
2015,08,29,11,14,991.77
2015,08,29,11,15,991.77
2015,08,29,11,16,991.70
2015,08,29,11,17,991.70
2015,08,29,11,18,991.70
2015,08,29,11,19,991.64
2015,08,29,11,20,991.70
2015,08,29,11,21,991.70
2015,08,29,11,22,991.69
2015,08,29,11,23,991.57
2015,08,29,11,24,991.60
2015,08,29,11,25,991.43
2015,08,29,11,26,991.47
2015,08,29,11,27,991.50
2015,08,29,11,28,991.51
2015,08,29,11,29,991.60
2015,08,29,11,30,991.67
2015,08,29,11,31,991.70
2015,08,29,11,32,991.74
2015,08,29,11,33,991.77
2015,08,29,11,34,991.74
2015,08,29,11,35,991.70
2015,08,29,11,36,991.60
2015,08,29,11,37,991.74
2015,08,29,11,38,991.87
2015,08,29,11,39,991.86
2015,08,29,11,40,991.76
2015,08,29,11,41,991.57
2015,08,29,11,42,991.70
2015,08,29,11,43,991.53
2015,08,29,11,44,991.49
2015,08,29,11,45,991.40
2015,08,29,11,46,991.37
2015,08,29,11,47,991.40
2015,08,29,11,48,991.50
2015,08,29,11,49,991.47
2015,08,29,11,50,991.53
2015,08,29,11,51,991.49
2015,08,29,11,52,991.30
2015,08,29,11,53,991.26
2015,08,29,11,54,991.23
2015,08,29,11,55,991.30
2015,08,29,11,56,991.26
2015,08,29,11,57,991.23
2015,08,29,11,58,991.23
2015,08,29,11,59,991.19
2015,08,29,12,00,990.99
2015,08,29,12,01,990.79
2015,08,29,12,02,990.59
2015,08,29,12,03,990.49
2015,08,29,12,04,990.46
2015,08,29,12,05,990.55
2015,08,29,12,06,990.72
2015,08,29,12,07,990.45
2015,08,29,12,08,990.55
2015,08,29,12,09,990.45
2015,08,29,12,10,990.38
2015,08,29,12,11,990.45
2015,08,29,12,12,990.38
2015,08,29,12,13,990.45
2015,08,29,12,14,990.42
2015,08,29,12,15,990.49
2015,08,29,12,16,990.38
2015,08,29,12,17,990.46
2015,08,29,12,18,990.55
2015,08,29,12,19,990.49
2015,08,29,12,20,990.55
2015,08,29,12,21,990.62
2015,08,29,12,22,990.72
2015,08,29,12,23,990.69
2015,08,29,12,24,990.83
2015,08,29,12,25,991.05
2015,08,29,12,26,990.96
2015,08,29,12,27,990.86
2015,08,29,12,28,991.03
2015,08,29,12,29,990.99
2015,08,29,12,30,991.09
2015,08,29,12,31,991.03
2015,08,29,12,32,991.16
2015,08,29,12,33,991.23
2015,08,29,12,34,991.26
2015,08,29,12,35,991.26
2015,08,29,12,36,991.13
2015,08,29,12,37,991.20
2015,08,29,12,38,991.20
2015,08,29,12,39,991.26
2015,08,29,12,40,991.30
2015,08,29,12,41,991.23
2015,08,29,12,42,991.37
2015,08,29,12,43,991.33
2015,08,29,12,44,991.37
2015,08,29,12,45,991.43
2015,08,29,12,46,991.47
2015,08,29,12,47,991.53
2015,08,29,12,48,991.38
2015,08,29,12,49,991.50
2015,08,29,12,50,991.40
2015,08,29,12,51,991.38
2015,08,29,12,52,991.67
2015,08,29,12,53,991.60
2015,08,29,12,54,991.53
2015,08,29,12,55,991.70
2015,08,29,12,56,991.78
2015,08,29,12,57,991.87
2015,08,29,12,58,991.91
2015,08,29,12,59,991.84
2015,08,29,13,00,991.57
2015,08,29,13,01,991.91
2015,08,29,13,02,991.91
2015,08,29,13,03,991.92
2015,08,29,13,04,992.11
2015,08,29,13,05,992.18
2015,08,29,13,06,992.28
2015,08,29,13,07,992.48
2015,08,29,13,08,992.58
2015,08,29,13,09,992.65
2015,08,29,13,10,992.69
2015,08,29,13,11,992.62
2015,08,29,13,12,992.72
2015,08,29,13,13,992.99
2015,08,29,13,14,992.93
2015,08,29,13,15,993.09
2015,08,29,13,16,993.09
2015,08,29,13,17,993.06
2015,08,29,13,18,993.13
2015,08,29,13,19,993.16
2015,08,29,13,20,993.33
2015,08,29,13,21,993.43
2015,08,29,13,22,993.57
2015,08,29,13,23,993.68
2015,08,29,13,24,993.80
2015,08,29,13,25,993.84
2015,08,29,13,26,993.76
2015,08,29,13,27,993.63
2015,08,29,13,28,993.74
2015,08,29,13,29,993.80
2015,08,29,13,30,993.94
2015,08,29,13,31,993.94
2015,08,29,13,32,993.97
2015,08,29,13,33,994.07
2015,08,29,13,34,994.14
2015,08,29,13,35,994.18
2015,08,29,13,36,994.14
2015,08,29,13,37,994.24
2015,08,29,13,38,994.21
2015,08,29,13,39,994.28
2015,08,29,13,40,994.35
2015,08,29,13,41,994.38
2015,08,29,13,42,994.48
2015,08,29,13,43,994.58
2015,08,29,13,44,994.58
2015,08,29,13,45,994.65
2015,08,29,13,46,994.68
2015,08,29,13,47,994.68
2015,08,29,13,48,994.75
2015,08,29,13,49,994.82
2015,08,29,13,50,994.89
2015,08,29,13,51,994.89
2015,08,29,13,52,994.92
2015,08,29,13,53,994.92
2015,08,29,13,54,994.92
2015,08,29,13,55,994.99
2015,08,29,13,56,995.02
2015,08,29,13,57,995.02
2015,08,29,13,58,995.06
2015,08,29,13,59,995.09
2015,08,29,14,00,995.16
2015,08,29,14,01,995.02
2015,08,29,14,02,994.92
2015,08,29,14,03,995.09
2015,08,29,14,04,995.09
2015,08,29,14,05,995.19
2015,08,29,14,06,995.33
2015,08,29,14,07,995.29
2015,08,29,14,08,995.40
2015,08,29,14,09,995.29
2015,08,29,14,10,995.40
2015,08,29,14,11,995.41
2015,08,29,14,12,995.56
2015,08,29,14,13,995.60
2015,08,29,14,14,995.67
2015,08,29,14,15,995.80
2015,08,29,14,16,995.94
2015,08,29,14,17,995.90
2015,08,29,14,18,995.97
2015,08,29,14,19,995.94
2015,08,29,14,20,996.01
2015,08,29,14,21,996.24
2015,08,29,14,22,996.17
2015,08,29,14,23,996.24
2015,08,29,14,24,996.04
2015,08,29,14,25,996.12
2015,08,29,14,26,996.41
2015,08,29,14,27,996.31
2015,08,29,14,28,996.28
2015,08,29,14,29,996.34
2015,08,29,14,30,996.41
2015,08,29,14,31,996.48
2015,08,29,14,32,996.51
2015,08,29,14,33,996.58
2015,08,29,14,34,996.65
2015,08,29,14,35,996.75
2015,08,29,14,36,996.78
2015,08,29,14,37,996.82
2015,08,29,14,38,996.82
2015,08,29,14,39,996.75
2015,08,29,14,40,996.75
2015,08,29,14,41,996.89
2015,08,29,14,42,996.85
2015,08,29,14,43,996.99
2015,08,29,14,44,996.99
2015,08,29,14,45,996.99
2015,08,29,14,46,996.99
2015,08,29,14,47,997.09
2015,08,29,14,48,997.12
2015,08,29,14,49,997.12
2015,08,29,14,50,997.19
2015,08,29,14,51,997.09
2015,08,29,14,52,997.05
2015,08,29,14,53,997.12
2015,08,29,14,54,997.12
2015,08,29,14,55,997.22
2015,08,29,14,56,997.19
2015,08,29,14,57,997.33
2015,08,29,14,58,997.23
2015,08,29,14,59,997.39
2015,08,29,15,00,997.39
2015,08,29,15,01,997.55
2015,08,29,15,02,997.73
2015,08,29,15,03,997.77
2015,08,29,15,04,997.90
2015,08,29,15,05,997.87
2015,08,29,15,06,997.90
2015,08,29,15,07,997.94
2015,08,29,15,08,997.90
2015,08,29,15,09,997.97
2015,08,29,15,10,998.00
2015,08,29,15,11,998.00
2015,08,29,15,12,998.10
2015,08,29,15,13,998.17
2015,08,29,15,14,998.14
2015,08,29,15,15,998.17
2015,08,29,15,16,998.21
2015,08,29,15,17,998.21
2015,08,29,15,18,998.27
2015,08,29,15,19,998.31
2015,08,29,15,20,998.31
2015,08,29,15,21,998.38
2015,08,29,15,22,998.38
2015,08,29,15,23,998.58
2015,08,29,15,24,998.58
2015,08,29,15,25,998.65
2015,08,29,15,26,998.68
2015,08,29,15,27,998.68
2015,08,29,15,28,998.71
2015,08,29,15,29,998.65
2015,08,29,15,30,998.65
2015,08,29,15,31,998.71
2015,08,29,15,32,998.71
2015,08,29,15,33,998.78
2015,08,29,15,34,998.78
2015,08,29,15,35,998.85
2015,08,29,15,36,998.78
2015,08,29,15,37,998.89
2015,08,29,15,38,999.09
2015,08,29,15,39,999.18
2015,08,29,15,40,999.02
2015,08,29,15,41,999.29
2015,08,29,15,42,999.16
2015,08,29,15,43,999.26
2015,08,29,15,44,999.36
2015,08,29,15,45,999.43
2015,08,29,15,46,999.29
2015,08,29,15,47,999.29
2015,08,29,15,48,999.36
2015,08,29,15,49,999.39
2015,08,29,15,50,999.39
2015,08,29,15,51,999.39
2015,08,29,15,52,999.36
2015,08,29,15,53,999.46
2015,08,29,15,54,999.59
2015,08,29,15,55,999.59
2015,08,29,15,56,999.59
2015,08,29,15,57,999.63
2015,08,29,15,58,999.49
2015,08,29,15,59,999.56
2015,08,29,16,00,999.53
2015,08,29,16,01,999.62
2015,08,29,16,02,999.66
2015,08,29,16,03,999.66
2015,08,29,16,04,999.73
2015,08,29,16,05,999.70
2015,08,29,16,06,999.76
2015,08,29,16,07,999.90
2015,08,29,16,08,999.93
2015,08,29,16,09,1000.00
2015,08,29,16,10,1000.00
2015,08,29,16,11,1000.00
2015,08,29,16,12,1000.14
2015,08,29,16,13,1000.17
2015,08,29,16,14,1000.24
2015,08,29,16,15,1000.20
2015,08,29,16,16,1000.14
2015,08,29,16,17,1000.10
2015,08,29,16,18,1000.14
2015,08,29,16,19,1000.17
2015,08,29,16,20,1000.17
2015,08,29,16,21,1000.17
2015,08,29,16,22,1000.27
2015,08,29,16,23,1000.24
2015,08,29,16,24,1000.24
2015,08,29,16,25,1000.24
2015,08,29,16,26,1000.20
2015,08,29,16,27,1000.10
2015,08,29,16,28,1000.14
2015,08,29,16,29,1000.14
2015,08,29,16,30,1000.10
2015,08,29,16,31,1000.07
2015,08,29,16,32,1000.07